This is the latest recevied weather packets stored in our database for station/object K5NCO. If no packets are shown the sender has not sent any weather packets the latest 10 day(s).
| Time | Temp. | Humidity | Pressure | Rain* | Wind** | Luminosity | Snow |
|---|---|---|---|---|---|---|---|
| 1777678010 | 12.22° C | 99% | 1016.4 hPa | 0 mm | - | 27 W/m² | - |
| 1777677708 | 12.22° C | 99% | 1016.2 hPa | 0 mm | - | 32 W/m² | - |
| 1777677406 | 12.22° C | 99% | 1016.2 hPa | 0 mm | - | 48 W/m² | - |
| 1777677103 | 11.67° C | 99% | 1016.5 hPa | 0 mm | - | 48 W/m² | - |
| 1777676802 | 11.67° C | 99% | 1016.5 hPa | 0 mm | - | 47 W/m² | - |
| 1777676500 | 11.67° C | 99% | 1016.3 hPa | 0 mm | - | 42 W/m² | - |
| 1777676197 | 11.67° C | 99% | 1016.1 hPa | 0 mm | - | 31 W/m² | - |
| 1777675893 | 11.67° C | 99% | 1016.1 hPa | 0 mm | - | 29 W/m² | - |
| 1777675590 | 12.22° C | 99% | 1016.1 hPa | 0 mm | - | 35 W/m² | - |
| 1777675287 | 12.22° C | 99% | 1015.9 hPa | 0 mm | - | 49 W/m² | - |
| 1777674984 | 12.22° C | 99% | 1015.7 hPa | 0 mm | - | 69 W/m² | - |
| 1777674681 | 12.22° C | 99% | 1015.8 hPa | 1.78 mm | - | 66 W/m² | - |
| 1777674386 | 12.78° C | 99% | 1016.3 hPa | 1.78 mm | - | 48 W/m² | - |
| 1777674074 | 12.78° C | 99% | 1016 hPa | 1.27 mm | - | 28 W/m² | - |
| 1777673770 | 12.78° C | 99% | 1016.1 hPa | 1.27 mm | - | 49 W/m² | - |
| 1777673468 | 12.78° C | 99% | 1015.8 hPa | 1.78 mm | - | 34 W/m² | - |
| 1777673166 | 12.78° C | 99% | 1015.7 hPa | 3.05 mm | - | 86 W/m² | - |
| 1777672862 | 12.22° C | 99% | 1015.7 hPa | 3.05 mm | - | 76 W/m² | - |
| 1777672559 | 12.22° C | 99% | 1015.6 hPa | 3.56 mm | - | 65 W/m² | - |
| 1777672254 | 12.22° C | 99% | 1015.9 hPa | 3.05 mm | - | 58 W/m² | - |
| 1777671949 | 12.78° C | 99% | 1016 hPa | 4.32 mm | - | 29 W/m² | - |
| 1777671645 | 12.78° C | 99% | 1015.9 hPa | 3.05 mm | - | 22 W/m² | - |
| 1777671342 | 12.78° C | 99% | 1015.6 hPa | 0 mm | - | 23 W/m² | - |
| 1777671038 | 12.78° C | 99% | 1015.3 hPa | 0 mm | - | 25 W/m² | - |
| 1777670735 | 12.78° C | 99% | 1015.2 hPa | 0 mm | - | 25 W/m² | - |
* Rain latest hour (hover to see other rain measurements)
** Current wind speed in m/s (hover to see current wind gust speed)